Delhi Cantonment, India

6:23 AM IST on February 24, 2017 (GMT +0530)
Indira Gandhi International

Weather History for VIDP - November, 2012

Change the Weather History Date:

Tuesday, November 27, 2012

  Actual Average Record
Temperature  
Mean Temperature 62 °F -  
Max Temperature 75 °F 70 °F 84 °F (2016)
Min Temperature 48 °F 48 °F 44 °F (2006)
Degree Days  
Heating Degree Days 4    
Growing Degree Days 12 (Base 50)    
Moisture  
Dew Point 42 °F    
Average Humidity 53    
Maximum Humidity 82    
Minimum Humidity 25    
Precipitation  
Precipitation 0.00 in - - ()
Sea Level Pressure  
Sea Level Pressure 29.96 in    
Wind  
Wind Speed 2 mph ()    
Max Wind Speed 12 mph    
Max Gust Speed -    
Visibility 1.6 miles    
Events      
Averages and records for this station are not official NWS values.
T = Trace of Precipitation, MM = Missing Value Source: Averaged Metar Reports

Daily Weather History Graph

Daily Weather History Graph

Search for Another Location

Airport or City:

Trip Planner

Search our weather history database for the weather conditions in past years. The results will help you decide how hot, cold, wet, or windy it might be!

Date:

Astronomy

Nov. 27, 2012 Rise Set
Actual Time 6:53 AM IST 5:24 PM IST
Civil Twilight 6:28 AM IST 5:50 PM IST
Nautical Twilight 5:59 AM IST 6:18 PM IST
Astronomical Twilight 5:30 AM IST 6:47 PM IST
Moon 4:35 PM IST (11/27) 5:36 AM IST (11/27)
Length of Visible Light 11h 21m
Length of Day
10h 30m
Waxing Gibbous, 98% of the Moon is Illuminated
Nov 27
Waxing Gibbous
Nov 28
Full
Dec 6
Last Quarter
Dec 13
New
Dec 20
First Quarter

Hourly Weather History & Observations

Time (IST) Temp. Dew Point Humidity Pressure Visibility Wind Dir Wind Speed Gust Speed Precip Events Conditions
12:00 AM 55.4 °F 44.6 °F 67% 29.98 in 1.1 mi Calm Calm - N/A   Smoke
12:30 AM 55.4 °F 44.6 °F 67% 29.98 in 1.1 mi Calm Calm - N/A   Smoke
2:00 AM 53.6 °F 42.8 °F 67% 29.95 in 0.9 mi Calm Calm - N/A   Smoke
2:30 AM 53.6 °F 42.8 °F 67% 29.95 in 1.3 mi Calm Calm - N/A   Smoke
3:00 AM 51.8 °F 42.8 °F 71% 29.95 in 1.3 mi Calm Calm - N/A   Smoke
3:30 AM 51.8 °F 42.8 °F 71% 29.95 in 1.3 mi Calm Calm - N/A   Smoke
4:00 AM 51.8 °F 42.8 °F 71% 29.95 in 1.3 mi Calm Calm - N/A   Smoke
4:30 AM 50.0 °F 42.8 °F 76% 29.98 in 1.3 mi Calm Calm - N/A   Mist
5:00 AM 50.0 °F 42.8 °F 76% 29.98 in 1.2 mi Calm Calm - N/A   Mist
5:30 AM 50.0 °F 42.8 °F 76% 29.98 in 1.2 mi Calm Calm - N/A   Mist
6:00 AM 50.0 °F 42.8 °F 76% 29.98 in 1.2 mi Calm Calm - N/A   Mist
6:30 AM 50.0 °F 42.8 °F 76% 29.98 in 1.2 mi Calm Calm - N/A   Mist
7:00 AM 48.2 °F 42.8 °F 82% 29.98 in 1.2 mi Calm Calm - N/A   Mist
7:30 AM 50.0 °F 42.8 °F 76% 29.98 in 1.2 mi Calm Calm - N/A   Mist
8:00 AM 51.8 °F 42.8 °F 71% 30.01 in 1.2 mi Calm Calm - N/A   Smoke
8:30 AM 53.6 °F 44.6 °F 72% 30.01 in 1.1 mi WSW 3.5 mph - N/A   Smoke
9:00 AM 57.2 °F 42.8 °F 59% 30.01 in 1.2 mi West 5.8 mph - N/A   Smoke
9:30 AM 59.0 °F 44.6 °F 59% 30.04 in 1.2 mi West 5.8 mph - N/A   Smoke
10:00 AM 60.8 °F 42.8 °F 52% 30.04 in 1.6 mi West 5.8 mph - N/A   Smoke
12:00 PM 71.6 °F 42.8 °F 35% 30.01 in 1.9 mi West 9.2 mph - N/A   Haze
12:30 PM 71.6 °F 41.0 °F 33% 29.98 in 1.9 mi WNW 8.1 mph - N/A   Smoke
1:00 PM 73.4 °F 41.0 °F 31% 29.95 in 2.2 mi WNW 8.1 mph - N/A   Haze
1:30 PM 75.2 °F 39.2 °F 27% 29.95 in 2.5 mi West 10.4 mph - N/A   Haze
2:00 PM 75.2 °F 39.2 °F 27% 29.95 in 2.5 mi West 9.2 mph - N/A   Haze
2:30 PM 75.2 °F 37.4 °F 25% 29.92 in 2.5 mi West 10.4 mph - N/A   Haze
3:00 PM 75.2 °F 37.4 °F 25% 29.92 in 2.8 mi WNW 10.4 mph - N/A   Haze
3:30 PM 75.2 °F 37.4 °F 25% 29.92 in 2.8 mi West 10.4 mph - N/A   Haze
4:00 PM 75.2 °F 37.4 °F 25% 29.92 in 2.8 mi West 11.5 mph - N/A   Haze
5:00 PM 71.6 °F 41.0 °F 33% 29.89 in 2.8 mi West 6.9 mph - N/A   Haze
5:30 PM 69.8 °F 41.0 °F 35% 29.89 in 2.2 mi WSW 4.6 mph - N/A   Haze
6:30 PM 64.4 °F 42.8 °F 45% 29.92 in 1.6 mi West 4.6 mph - N/A   Haze
7:00 PM 64.4 °F 42.8 °F 45% 29.92 in 1.6 mi West 4.6 mph - N/A   Haze
7:30 PM 64.4 °F 42.8 °F 45% 29.92 in 1.6 mi West 3.5 mph - N/A   Haze
9:00 PM 62.6 °F 39.2 °F 42% 29.95 in 1.6 mi WSW 3.5 mph - N/A   Haze
9:30 PM 62.6 °F 41.0 °F 45% 29.98 in 1.6 mi Calm Calm - N/A   Haze
10:00 PM 60.8 °F 41.0 °F 48% 29.98 in 1.3 mi Calm Calm - N/A   Haze
10:30 PM 62.6 °F 41.0 °F 45% 29.95 in 1.2 mi Calm Calm - N/A   Smoke
11:00 PM 60.8 °F 42.8 °F 52% 29.95 in 1.1 mi Calm Calm - N/A   Smoke
11:30 PM 59.0 °F 41.0 °F 51% 29.98 in 1.1 mi Calm Calm - N/A   Smoke